Date,TemperatureHighF,TemperatureAvgF,TemperatureLowF,DewpointHighF,DewpointAvgF,DewpointLowF,HumidityHigh,HumidityAvg,HumidityLow,PressureMaxIn,PressureMinIn,WindSpeedMaxMPH,WindSpeedAvgMPH,GustSpeedMaxMPH,PrecipitationSumIn
2013-1-1,40.3,36.6,25.7,26.7,18.6,-2.7,62,50,29,29.99,29.80,16,6,16,0.01
2013-1-2,33.8,27.8,21.0,12.6,5.2,0.2,51,39,28,30.14,29.97,17,5,17,0.00
2013-1-3,35.1,28.8,19.6,12.9,8.3,1.4,55,43,28,30.18,30.04,12,4,12,0.00
2013-1-4,41.4,35.0,29.1,21.1,16.1,12.4,56,47,36,30.06,29.91,21,6,21,0.00
2013-1-5,47.1,36.6,30.4,23.3,15.7,10.8,72,45,27,30.25,29.55,21,4,21,0.00
2013-1-6,48.4,40.6,34.7,31.4,23.8,17.6,78,53,39,30.21,29.93,12,4,12,0.00
2013-1-7,49.8,39.5,29.5,27.8,20.5,11.4,70,50,26,30.38,30.01,13,3,13,0.00
2013-1-8,51.3,39.6,27.5,28.2,24.7,19.0,77,57,40,30.41,30.31,14,2,14,0.00
2013-1-9,49.8,41.0,29.1,37.4,30.4,22.6,83,67,54,30.37,30.10,17,3,17,0.00
2013-1-10,45.1,44.6,43.7,30.4,25.5,20.5,57,48,40,30.31,30.19,15,5,15,0.00
2013-1-11,44.1,40.7,39.2,43.5,37.8,28.9,99,90,64,30.37,29.41,11,4,11,0.00
2013-1-12,46.2,44.3,41.9,44.9,43.3,41.6,99,96,90,30.16,30.05,10,2,10,0.00
2013-1-13,47.5,44.3,41.2,46.9,43.7,40.9,99,98,96,30.14,29.98,6,1,6,0.00
2013-1-14,58.1,49.7,37.6,54.3,41.8,26.5,99,78,46,30.28,29.86,17,3,17,0.00
2013-1-15,40.1,37.5,34.3,32.6,24.9,19.8,83,62,51,30.32,30.20,12,3,12,0.00
2013-1-16,36.7,34.0,32.0,34.0,30.8,22.9,93,88,60,30.20,29.78,8,2,8,0.00
2013-1-17,47.8,39.8,34.2,33.6,25.4,17.5,86,58,40,30.08,29.88,13,4,13,0.00
2013-1-18,34.2,28.8,24.1,17.3,-0.7,-13.8,51,31,18,30.47,29.99,13,4,13,0.00
2013-1-19,52.2,42.4,29.3,24.3,16.6,4.4,54,38,20,30.38,29.89,17,6,17,0.00
2013-1-20,57.2,44.2,29.8,27.6,14.4,-5.8,61,36,14,30.01,29.65,27,7,27,0.00
2013-1-21,32.9,29.3,23.9,13.9,3.2,-6.4,53,35,25,30.08,29.80,11,3,12,0.00
2013-1-22,26.8,20.6,12.9,11.7,-11.5,-22.0,53,26,17,30.18,29.79,22,8,22,0.00
2013-1-23,22.1,15.1,10.2,-10.2,-17.8,-22.2,35,23,17,30.24,30.14,16,5,16,0.00
2013-1-24,26.6,17.2,10.2,-5.0,-12.6,-21.2,46,29,18,30.37,30.11,28,6,28,0.00
2013-1-25,25.7,18.6,12.9,14.4,-3.5,-17.0,78,42,19,30.40,30.04,14,3,14,0.00
2013-1-26,29.7,21.2,14.5,7.9,0.1,-12.5,69,44,19,30.35,30.02,14,4,14,0.00
2013-1-27,36.9,26.7,15.8,7.7,-1.3,-7.2,55,33,18,30.50,30.34,9,3,9,0.00
2013-1-28,35.2,31.4,24.1,31.9,21.2,4.2,91,69,39,30.48,29.98,11,2,11,0.00
2013-1-29,45.1,38.1,35.2,40.4,34.5,31.8,95,87,71,30.14,29.97,14,4,14,0.00
2013-1-30,54.3,46.6,36.3,52.9,45.3,35.0,99,95,81,30.08,29.35,18,4,18,7.55
2013-1-31,57.4,45.5,29.7,56.8,23.2,-3.9,99,50,19,29.75,29.00,34,12,34,0.00
2013-2-1,33.4,28.7,23.7,8.2,-0.0,-11.0,45,32,19,30.20,29.75,21,7,21,0.00
2013-2-2,34.5,25.9,18.9,17.6,0.1,-8.1,77,37,20,30.28,30.04,16,5,16,0.00
2013-2-3,35.4,26.8,20.5,18.7,14.2,8.1,80,61,41,30.04,29.76,9,2,9,0.00
2013-2-4,34.5,28.1,23.0,15.5,0.1,-9.4,61,33,20,29.96,29.77,16,6,16,0.00
2013-2-5,30.7,28.8,26.1,26.5,20.2,7.9,85,71,42,29.97,29.88,10,3,10,0.00
2013-2-6,42.6,33.8,27.3,27.9,13.7,-13.8,87,51,18,30.34,29.90,19,4,19,0.00
2013-2-7,33.1,28.5,23.9,21.8,-1.3,-13.8,64,31,18,30.51,30.32,14,3,14,0.00
2013-2-8,33.4,32.8,32.2,25.3,22.4,21.4,73,65,63,30.33,30.19,17,9,17,0.00
2013-2-10,43.9,28.7,12.9,21.9,3.7,-10.8,71,39,17,30.47,30.31,9,2,9,0.00
2013-2-11,45.5,37.5,29.1,44.5,35.0,21.2,99,90,71,30.32,29.64,5,1,5,0.00
2013-2-12,49.5,40.9,34.7,38.6,23.8,17.2,99,54,32,29.95,29.68,14,4,14,0.00
2013-2-13,52.0,37.7,25.7,32.8,20.1,9.5,82,53,22,29.93,29.67,8,2,8,0.00
2013-2-14,34.2,33.8,33.6,30.5,30.0,29.4,88,86,83,29.76,29.68,5,2,5,0.00
2013-3-1,40.5,38.9,37.2,26.1,22.9,18.8,57,53,48,29.74,29.72,11,6,11,0.00
2013-3-2,44.8,36.7,30.6,27.6,20.1,16.4,87,53,37,29.74,29.65,13,4,13,0.00
2013-3-3,45.5,34.0,29.1,24.4,13.6,3.8,76,46,21,29.72,29.61,14,6,14,0.00
2013-3-4,44.2,34.4,27.1,17.0,12.0,7.2,54,41,25,29.87,29.72,21,8,21,0.00
2013-3-5,51.8,39.9,30.4,28.9,19.2,13.7,67,46,27,30.00,29.86,14,4,14,0.00
2013-3-6,42.6,39.4,36.9,34.3,30.3,24.5,87,71,54,29.97,29.84,30,10,30,0.00
2013-3-7,40.1,35.9,32.7,30.8,27.9,21.4,89,74,54,30.05,29.93,22,7,22,0.00
2013-3-8,41.5,35.7,30.4,32.8,28.7,20.7,95,78,47,30.16,29.96,17,4,17,0.00
2013-3-9,58.1,44.0,32.9,24.5,15.6,2.5,71,38,15,30.31,30.14,14,5,14,0.00
2013-3-10,47.3,38.8,28.2,36.7,30.1,23.8,93,72,55,30.38,30.29,11,3,11,0.00
2013-3-11,54.0,45.0,38.1,47.1,38.8,33.7,93,80,58,30.32,30.08,10,3,10,0.00
2013-3-12,54.0,50.4,43.9,53.1,46.8,34.4,98,88,69,30.09,29.65,21,6,21,0.00
2013-3-13,54.3,44.2,34.2,34.8,24.4,5.2,88,53,17,29.86,29.75,14,4,14,0.00
2013-3-14,38.8,37.3,35.2,25.0,19.2,7.6,58,49,39,29.86,29.84,14,6,14,0.00
2013-3-17,40.8,36.6,32.4,12.6,1.0,-5.9,43,24,20,30.29,30.07,11,4,11,0.00
2013-3-18,34.9,30.7,25.5,32.6,10.4,-9.8,98,49,21,30.40,30.01,19,7,19,0.00
2013-3-19,47.7,37.3,33.1,36.9,32.6,23.0,98,84,55,30.01,29.66,25,8,25,0.00
2013-3-20,49.3,39.2,31.1,23.0,10.9,-1.7,58,35,17,29.86,29.75,26,6,26,0.00
2013-3-21,43.0,35.6,32.2,24.1,9.2,-7.0,72,37,18,29.82,29.60,14,4,14,0.00
2013-3-22,44.4,36.1,28.4,15.6,9.0,1.7,50,35,21,29.85,29.70,18,6,18,0.00
2013-3-23,50.5,39.9,32.2,17.6,10.5,-0.2,49,33,18,29.91,29.78,19,7,19,0.00
2013-3-24,50.7,40.2,30.0,26.0,14.8,5.8,60,39,21,29.93,29.68,13,3,13,0.00
2013-3-25,41.5,38.5,36.3,34.8,27.8,22.1,89,66,50,29.69,29.44,61,5,61,0.00
2013-3-26,55.6,44.1,36.7,27.4,22.3,9.7,66,46,20,29.83,29.55,14,3,14,0.00
2013-3-27,56.5,45.1,34.9,27.2,18.0,4.7,54,39,16,29.94,29.82,19,5,19,0.00
2013-3-28,52.3,44.9,36.1,28.0,25.9,21.8,65,50,36,30.08,29.92,14,5,14,0.00
2013-3-29,60.8,48.1,39.9,26.7,21.9,10.0,57,40,17,30.12,30.02,16,5,16,0.00
2013-3-30,63.0,48.7,37.8,32.6,21.5,1.0,73,43,12,30.14,30.03,14,3,14,0.00
2013-3-31,56.8,45.5,32.9,44.0,35.2,28.2,98,70,44,30.10,29.64,14,3,14,0.21
2013-4-1,66.9,50.0,37.6,47.1,34.5,-0.5,98,63,20,29.88,29.57,22,6,22,0.00
2013-4-2,46.9,39.1,32.0,12.0,1.8,-4.9,42,24,15,30.06,29.88,21,7,21,0.00
2013-4-3,49.8,40.0,32.2,9.0,1.3,-7.2,38,23,15,30.27,30.05,24,8,24,0.00
2013-4-4,57.2,42.6,30.4,34.0,15.9,2.9,73,39,18,30.37,30.06,14,4,14,0.00
2013-4-5,66.9,50.9,41.4,35.6,15.7,-0.2,70,34,11,30.06,29.67,17,6,17,0.00
2013-4-6,46.6,43.1,34.9,18.0,6.0,-4.8,47,26,15,30.27,29.96,15,5,15,0.00
2013-4-7,46.4,46.4,46.4,2.6,2.6,2.6,19,19,19,30.27,30.27,4,4,11,0.00
2013-4-8,46.4,46.4,46.4,2.6,2.6,2.6,19,19,19,30.27,30.27,4,4,11,0.00
2013-4-11,61.7,53.8,46.0,54.4,47.8,41.5,99,81,62,30.03,29.80,12,4,12,0.17
2013-4-12,46.0,42.7,40.6,42.6,41.2,36.7,99,95,75,30.03,29.69,27,10,27,0.44
2013-4-13,59.0,48.5,39.2,43.8,38.8,28.2,99,74,35,29.95,29.70,12,3,14,0.05
2013-4-14,60.4,52.9,45.9,46.1,28.6,12.9,95,47,20,30.21,29.93,21,5,21,0.00
2013-4-15,59.9,48.3,41.4,40.7,32.7,23.7,85,57,41,30.37,30.20,12,3,12,0.00
2013-4-16,66.6,54.5,43.0,54.3,47.9,38.4,97,80,59,30.36,30.09,21,4,21,0.00
2013-4-17,73.6,61.6,50.9,57.5,39.0,9.2,93,53,13,30.27,30.08,15,4,15,0.00
2013-4-18,62.1,53.4,47.1,55.5,46.0,34.2,99,79,40,30.35,30.08,12,4,12,0.00
2013-4-19,75.0,61.4,53.4,62.1,57.9,52.8,99,89,64,30.09,29.61,18,4,18,0.01
2013-4-20,64.8,55.3,46.9,59.3,30.2,5.1,99,49,13,30.27,29.63,20,6,20,0.12
2013-4-21,60.8,46.2,36.5,33.1,18.0,5.3,67,38,15,30.61,30.27,16,4,16,0.00
2013-4-22,54.9,47.2,40.3,39.5,34.6,29.7,79,63,42,30.66,30.48,21,8,21,0.00
2013-4-23,44.2,43.0,43.0,36.4,34.6,34.5,75,72,72,30.49,30.46,18,11,18,0.00
2013-4-24,43.0,43.0,43.0,34.5,34.5,34.5,72,72,72,30.46,30.46,11,11,16,0.00
2013-4-25,43.0,43.0,43.0,34.5,34.5,34.5,72,72,72,30.46,30.46,11,11,16,0.00
2013-4-26,43.0,43.0,43.0,34.5,34.5,34.5,72,72,72,30.46,30.46,11,11,16,0.00
2013-4-27,76.5,57.1,41.9,40.4,23.5,0.9,72,40,10,30.46,30.25,14,5,16,0.00
2013-4-28,69.1,55.8,42.6,49.1,39.8,11.2,98,61,14,30.30,30.18,11,3,11,0.00
2013-4-29,58.6,54.8,52.0,52.4,48.4,43.1,98,80,66,30.23,30.17,8,2,8,0.04
2013-4-30,66.9,55.3,46.2,49.4,43.5,31.2,94,68,39,30.32,30.19,15,4,15,0.00
2013-5-1,73.2,55.6,42.4,46.7,38.0,18.4,85,56,22,30.47,30.31,14,4,14,0.00
2013-5-2,76.1,59.6,43.2,53.2,41.8,22.4,99,61,20,30.45,30.29,11,2,11,0.00
2013-5-3,70.0,57.5,47.8,50.2,41.3,32.2,90,59,34,30.45,30.33,18,5,18,0.00
2013-5-4,72.5,56.2,45.5,50.7,43.7,36.0,99,68,30,30.35,30.22,11,3,11,0.00
2013-5-5,65.5,53.5,45.3,48.0,41.5,36.1,88,67,40,30.29,30.19,11,4,11,0.00
2013-5-6,66.6,55.4,45.5,51.3,48.0,43.7,99,79,53,30.26,30.13,10,4,10,0.00
2013-5-7,69.6,58.9,0.0,59.2,54.5,48.1,99,86,58,30.16,30.05,13,3,13,0.00
2013-5-8,68.7,58.3,53.8,65.3,57.4,52.8,99,97,83,30.09,29.96,14,4,14,0.86
2013-5-9,72.3,57.5,53.2,64.0,55.8,52.7,99,95,64,29.99,29.86,10,3,10,0.33
2013-5-10,85.3,67.6,51.8,67.9,55.4,48.3,99,71,34,29.97,29.84,14,2,14,0.01
2013-5-11,68.9,62.8,59.4,65.8,61.4,57.2,99,95,82,29.86,29.67,12,2,12,0.48
2013-5-12,73.0,63.5,52.0,60.3,35.6,1.4,99,49,10,29.90,29.61,19,5,19,0.02
2013-5-13,61.3,52.4,44.8,32.7,24.1,7.3,63,38,16,30.08,29.90,97,5,97,0.00
2013-5-14,70.3,53.9,40.6,44.7,24.6,0.6,81,44,10,30.10,29.98,14,3,14,0.05
2013-5-15,72.5,58.7,43.9,57.5,48.6,39.1,95,72,39,30.04,29.64,14,2,14,0.01
2013-5-16,84.4,69.3,55.6,60.2,50.1,33.7,99,59,22,29.78,29.67,14,2,14,0.00
2013-5-17,81.9,66.5,54.9,51.9,39.2,22.4,77,42,16,30.18,29.78,11,2,11,0.00
2013-5-18,72.9,60.3,51.8,57.7,51.3,44.6,94,75,41,30.29,30.17,11,2,11,0.04
2013-5-19,59.2,57.5,55.8,58.9,56.3,49.1,99,96,71,30.31,30.15,9,2,9,0.44
2013-5-20,84.2,68.4,56.8,67.0,62.6,56.6,99,85,54,30.16,29.91,10,2,10,0.01
2013-5-21,91.0,75.9,61.3,70.7,65.8,60.8,99,75,45,29.94,29.78,12,2,12,0.07
2013-5-22,77.2,65.6,56.3,67.0,61.9,56.0,99,89,67,29.93,29.80,17,3,17,0.00
2013-5-23,85.3,68.8,63.3,70.6,65.7,62.5,99,91,56,29.86,29.72,14,3,14,0.72
2013-5-24,70.2,57.6,46.9,66.3,55.8,43.8,99,94,79,29.91,29.62,12,3,12,0.20
2013-5-25,57.9,50.0,44.4,48.8,42.5,37.4,99,78,52,29.96,29.85,22,5,22,0.22
2013-5-26,72.5,58.3,46.9,41.1,34.6,22.6,74,47,20,30.18,29.91,23,5,23,0.00
2013-5-27,82.8,64.5,43.5,48.7,34.3,11.5,83,42,11,30.22,30.06,11,2,11,0.00
2013-5-28,69.8,58.6,51.1,57.8,52.0,41.9,99,81,49,30.20,30.11,7,2,7,0.43
2013-5-29,90.1,69.7,57.4,67.0,61.9,57.1,99,80,46,30.12,29.95,11,2,11,0.00
2013-5-30,100.4,81.3,62.8,72.8,64.2,56.8,99,63,29,30.08,29.99,12,2,12,0.00
2013-5-31,97.7,81.5,68.0,74.9,66.3,60.1,96,65,38,30.09,29.23,11,2,11,0.00
2013-6-1,93.2,80.6,68.0,71.7,66.9,63.8,93,67,44,29.99,29.85,11,3,11,0.00
2013-6-2,89.6,78.1,66.2,71.4,67.2,64.6,97,72,50,29.89,29.73,15,3,15,0.09
2013-6-3,80.6,71.9,67.3,72.5,67.6,48.9,99,88,52,29.84,29.75,10,2,15,0.53
2013-6-4,85.5,69.7,55.4,50.9,41.3,24.9,74,41,15,30.08,29.84,14,3,14,0.13
2013-6-5,79.7,66.8,53.4,55.6,45.4,35.8,90,50,27,30.19,30.07,8,2,8,0.00
2013-6-6,77.0,65.0,57.0,62.3,57.4,-5.3,99,80,10,30.12,30.00,11,3,11,0.07
2013-6-7,60.8,60.0,58.8,60.3,59.7,-4.6,99,99,98,30.00,29.61,20,7,20,2.31
2013-6-8,84.6,69.8,56.3,65.7,60.9,-8.5,99,77,49,30.01,29.54,11,3,11,0.52
2013-6-9,90.5,74.1,59.4,72.5,59.4,51.1,99,67,30,30.14,30.00,12,2,12,0.00
2013-6-10,69.3,64.3,-8.3,66.3,63.5,-8.5,99,97,89,30.14,29.81,14,4,14,0.99
2013-6-11,85.8,73.0,61.3,76.9,65.1,57.6,99,79,49,29.82,29.55,17,4,17,0.28
2013-6-12,86.0,72.3,61.0,59.4,53.9,47.4,86,56,33,29.81,29.60,20,3,20,0.33
2013-6-13,61.0,59.4,58.1,58.3,57.7,56.7,98,94,86,29.81,29.77,2,0,2,0.00
2013-6-14,79.7,64.4,62.4,57.0,55.2,52.3,82,73,41,29.84,29.73,4,2,4,0.31
2013-6-15,89.4,74.0,55.8,66.3,51.8,39.6,99,54,23,29.98,29.83,12,2,12,0.00
2013-6-16,86.9,74.0,58.6,66.6,58.1,43.1,86,62,27,29.95,29.71,16,3,16,0.00
2013-6-17,94.3,79.5,64.4,76.4,64.1,56.2,99,65,34,29.87,29.78,13,2,13,0.00
2013-6-18,82.0,70.6,64.2,70.6,66.7,63.2,99,89,65,29.87,29.78,9,2,9,0.15
2013-6-19,87.4,70.9,58.5,65.4,52.3,-14.9,99,61,14,30.13,29.84,10,2,10,0.02
2013-6-20,86.2,72.8,55.9,67.9,56.0,50.6,99,61,34,30.24,30.13,9,2,9,0.77
2013-6-21,89.1,77.9,61.3,58.7,54.0,45.6,72,48,32,30.28,30.19,13,3,13,0.00
2013-6-22,89.6,75.3,59.5,61.7,56.8,49.6,82,56,32,30.23,30.09,11,2,11,0.00
2013-6-23,93.4,80.2,65.7,73.5,67.2,59.2,95,68,41,30.15,30.01,11,3,11,0.00
2013-6-24,101.1,84.9,72.5,77.0,69.1,57.5,99,65,33,30.02,29.88,11,2,11,0.00
2013-6-25,99.0,85.5,70.0,73.1,67.4,62.5,91,59,35,29.96,29.73,21,3,21,0.13
2013-6-26,94.6,83.5,74.5,71.9,68.1,62.5,91,63,42,29.80,26.71,13,2,13,0.00
2013-6-27,86.9,76.6,71.2,74.9,72.0,70.1,99,87,63,29.78,29.52,13,3,13,0.38
2013-6-28,91.8,80.0,71.6,75.2,70.9,65.3,99,76,48,29.53,29.42,11,3,11,59.43
2013-6-29,90.3,78.1,69.1,72.9,69.6,63.7,98,78,45,29.66,29.44,10,2,10,0.00
2013-6-30,88.2,76.4,69.4,75.7,72.7,69.1,99,89,66,29.88,29.65,9,2,9,0.00
2013-7-1,78.4,73.8,72.0,76.3,72.9,70.9,99,97,89,30.03,29.86,9,2,9,0.53
2013-7-2,88.0,77.0,71.2,77.2,73.1,3.6,99,89,10,30.15,30.02,9,2,9,0.06
2013-7-3,91.8,78.1,71.6,80.7,73.6,70.1,99,87,59,30.21,30.12,7,1,7,0.15
2013-7-4,97.0,84.0,73.0,83.0,74.2,70.3,99,76,46,30.21,30.09,10,2,10,0.00
2013-7-5,98.4,87.4,75.9,78.3,72.7,67.4,93,65,41,30.17,30.01,8,2,8,0.00
2013-7-6,99.7,89.8,78.1,78.3,72.0,67.1,89,60,40,30.08,29.95,11,2,11,0.00
2013-7-7,101.1,89.5,78.8,79.7,72.5,65.7,87,60,40,30.00,29.85,11,2,11,0.00
2013-7-8,97.3,84.4,70.7,73.1,68.8,65.1,99,65,39,29.99,29.90,14,1,14,0.31
2013-7-9,99.0,82.5,69.6,83.3,71.3,65.8,99,74,41,30.04,29.94,8,1,8,0.02
2013-7-12,70.9,69.0,67.5,69.7,68.6,67.2,99,99,96,30.06,30.03,11,6,12,0.17
2013-7-13,78.4,73.9,72.3,73.9,72.1,71.4,97,94,84,30.26,30.19,11,1,11,0.48
2013-7-14,99.7,85.0,72.1,88.4,72.5,67.5,99,71,39,30.31,30.18,2,0,2,0.00
2013-7-15,103.5,88.6,78.8,79.4,73.2,68.9,88,64,41,30.20,30.07,4,0,4,0.00
2013-7-16,102.4,87.5,75.4,76.1,68.4,61.1,93,59,33,30.16,30.07,7,0,7,0.12
2013-7-17,101.8,88.1,74.1,77.1,70.6,65.1,93,61,40,30.15,30.01,1,0,2,0.00
2013-7-18,106.3,91.9,78.6,77.9,72.8,66.7,85,59,35,30.02,29.89,1,0,1,0.00
2013-7-19,105.3,93.7,81.1,78.9,74.3,-10.1,84,58,40,29.92,29.71,2,0,2,0.00
2013-7-20,100.0,89.3,81.0,77.5,71.1,59.5,76,58,40,29.79,29.66,2,0,2,0.00
2013-7-21,87.1,80.4,73.9,74.8,67.8,56.3,95,69,39,29.93,29.78,4,0,4,0.00
2013-7-22,80.6,75.5,73.0,76.1,74.0,71.4,99,95,82,29.93,29.77,9,0,9,0.01
2013-7-23,93.4,81.0,72.0,84.1,73.5,68.4,99,81,51,29.77,29.49,2,0,2,0.94
2013-7-24,93.4,79.4,68.7,84.7,66.9,53.8,99,70,43,29.90,29.57,7,0,7,0.00
2013-7-25,68.7,65.2,63.3,60.9,56.4,52.4,92,74,61,30.04,29.89,2,0,2,0.00
2013-7-26,90.7,73.2,62.8,69.1,63.0,59.2,94,74,41,30.01,29.95,2,0,2,0.00
2013-7-27,92.3,77.5,63.1,78.6,65.1,58.7,99,71,38,30.02,29.93,2,0,2,0.00
2013-7-28,83.8,74.3,67.3,74.5,69.6,66.0,99,87,63,29.97,29.55,4,0,4,0.00
2013-7-29,93.0,79.0,67.6,80.9,63.8,40.4,99,66,26,30.06,29.92,2,0,2,0.01
2013-7-30,90.7,76.1,60.8,69.3,57.6,53.5,92,57,33,30.13,30.04,2,0,2,0.00
2013-7-31,90.5,76.1,61.3,70.3,60.9,56.4,94,64,38,30.12,30.00,3,0,3,0.00
2013-8-1,88.0,71.1,-8.3,70.0,66.8,-14.4,99,88,50,30.01,29.79,1,0,1,0.06
2013-8-2,93.6,79.2,66.2,76.7,63.2,54.8,99,65,39,29.87,29.75,2,0,2,0.00
2013-8-3,82.0,73.7,68.2,71.7,63.9,57.1,90,73,56,29.88,29.79,1,0,1,0.00
2013-8-4,69.4,69.4,69.4,66.0,66.0,66.0,89,89,89,29.92,29.80,2,0,2,0.00
2013-8-5,69.4,69.4,69.4,66.0,66.0,66.0,89,89,89,30.03,29.92,2,0,2,0.00
2013-8-6,69.4,69.4,69.4,66.0,66.0,66.0,89,89,89,30.09,29.99,3,0,3,0.00
2013-8-7,69.4,69.4,69.4,66.0,66.0,66.0,89,89,89,30.12,30.03,3,0,3,0.17
2013-8-8,69.4,69.4,69.4,66.0,66.0,66.0,89,89,89,30.05,29.96,2,0,2,0.00
2013-8-9,69.4,69.4,69.4,66.0,66.0,66.0,89,89,89,29.99,29.74,1,0,1,0.26
2013-8-10,69.4,69.4,69.4,66.0,66.0,66.0,89,89,89,30.00,29.82,2,0,2,0.00
2013-8-11,69.4,69.4,69.4,66.0,66.0,66.0,89,89,89,30.09,29.98,1,0,1,0.00
2013-8-12,69.4,69.4,69.4,66.0,66.0,66.0,89,89,89,30.00,29.88,2,0,2,0.00
2013-8-13,69.4,69.4,69.4,66.0,66.0,66.0,89,89,89,29.89,29.65,2,0,2,0.04
2013-8-14,69.4,69.4,69.4,66.0,66.0,66.0,89,89,89,29.72,29.70,0,0,0,0.00
2013-8-17,69.4,69.4,69.4,66.0,66.0,66.0,89,89,89,30.24,30.19,1,0,1,0.02
2013-8-18,69.4,69.4,69.4,66.0,66.0,66.0,89,89,89,30.24,30.09,1,0,1,0.00
2013-8-19,74.3,69.7,55.2,66.0,65.4,39.3,89,87,56,30.09,29.94,2,0,2,0.00
2013-8-20,96.3,79.6,62.8,77.1,64.5,56.4,99,67,32,30.14,30.05,4,0,4,0.00
2013-8-21,97.5,81.4,66.6,77.6,66.1,56.1,99,68,30,30.19,30.05,7,1,7,0.00
2013-8-22,83.7,74.9,70.9,77.0,72.2,69.4,99,91,74,30.07,29.87,4,0,4,0.26
2013-8-23,89.1,76.0,67.3,71.1,60.0,48.5,98,64,31,30.12,29.87,8,1,8,0.00
2013-8-24,79.3,68.4,61.0,55.1,51.3,49.1,69,57,40,30.32,30.12,8,2,8,0.00
2013-9-3,72.9,67.3,66.2,59.2,58.4,54.5,78,74,54,29.90,29.82,2,0,2,0.01
2013-9-4,90.3,75.7,62.6,64.6,56.5,46.2,87,58,29,30.02,29.88,6,1,6,0.00
2013-9-5,87.3,73.0,58.6,64.5,52.2,39.3,83,53,24,30.17,29.93,7,1,7,0.00
2013-9-6,77.4,63.6,50.2,50.6,42.7,36.1,82,51,26,30.29,30.14,6,1,8,0.24
2013-9-7,89.8,70.2,51.8,61.0,49.5,35.7,93,58,19,30.15,29.90,8,1,8,0.00
2013-9-8,90.3,74.7,62.1,64.1,53.6,32.3,84,52,25,30.10,29.81,6,1,6,0.00
2013-9-9,78.1,66.1,53.8,61.7,49.1,40.3,82,57,37,30.28,30.09,8,2,8,0.00
2013-9-10,89.4,76.2,67.5,74.0,69.0,61.3,92,79,57,30.19,30.04,7,2,7,0.00
2013-9-11,78.6,77.7,76.6,74.7,74.0,73.7,92,89,86,30.10,30.07,4,1,4,0.00
2013-9-12,92.3,79.1,69.3,77.2,71.9,67.5,99,81,52,29.94,29.66,8,1,8,0.00
2013-9-13,84.6,70.1,58.3,76.9,62.2,50.3,99,79,44,29.86,29.62,8,1,8,0.00
2013-9-14,75.7,61.6,51.6,52.0,47.8,44.3,85,64,40,30.16,29.85,4,1,4,0.00
2013-9-15,81.0,63.7,46.4,61.8,47.1,33.9,99,64,24,30.25,30.10,4,0,4,0.00
2013-9-16,82.0,64.5,57.0,60.5,54.4,44.8,99,74,33,30.28,30.05,8,1,8,0.00
2013-9-17,71.4,57.1,46.4,46.6,39.5,28.1,91,57,29,30.49,30.28,9,2,9,0.00
2013-9-18,81.9,62.3,44.8,63.0,45.1,29.8,99,65,22,30.39,30.20,5,1,5,0.00
2013-9-19,87.3,66.1,48.2,66.8,50.5,37.9,99,68,22,30.22,30.07,7,1,7,0.00
2013-9-20,88.5,68.4,52.0,73.0,57.0,51.3,99,73,36,30.12,30.01,8,1,8,0.00
2013-9-21,81.0,68.3,55.8,70.1,64.3,55.5,99,88,61,30.04,29.68,11,2,11,0.00
2013-9-22,79.2,66.4,54.0,69.1,52.7,-3.1,99,68,34,29.94,29.65,6,1,6,0.00
2013-9-23,74.5,59.4,46.0,48.6,41.9,35.1,92,58,30,30.08,29.93,7,1,7,0.00
2013-9-24,79.7,60.9,42.4,58.1,43.7,37.0,99,61,26,30.09,29.88,4,0,5,0.39
2013-9-25,80.8,63.9,46.0,56.4,45.6,34.0,94,58,25,29.99,29.88,4,0,4,0.00
2013-9-26,72.7,61.3,53.1,58.6,55.2,51.8,98,82,55,30.13,29.95,8,1,8,0.00
2013-9-27,74.1,60.9,51.4,60.4,52.8,49.6,99,77,50,30.30,30.12,7,1,7,0.00
2013-9-28,78.8,64.3,50.4,64.0,52.9,49.4,99,71,41,30.36,30.26,8,1,8,0.00
2013-9-29,74.3,61.8,52.0,65.5,54.4,49.5,99,80,53,30.27,30.11,7,1,7,0.00
2013-9-30,78.8,62.8,49.6,67.5,52.7,49.1,99,75,41,30.12,29.97,5,1,5,0.00
2013-10-1,89.1,69.7,50.9,70.6,55.3,47.9,99,69,29,30.03,29.89,4,0,4,0.00
2013-10-2,90.3,73.4,56.1,69.7,59.2,55.8,99,68,37,30.01,29.89,4,0,4,0.00
2013-10-3,87.4,70.1,56.1,73.7,56.5,46.4,99,68,32,30.15,30.01,4,1,4,0.00
2013-10-4,90.0,71.4,60.3,70.3,63.9,57.3,99,81,44,30.08,29.95,7,1,7,0.09
2013-10-5,74.8,66.6,63.0,66.3,64.1,62.1,97,92,72,30.12,30.02,4,1,4,0.01
2013-10-6,67.5,66.0,64.8,67.2,65.6,3.1,99,99,96,30.13,30.06,10,2,10,0.01
2013-10-7,78.6,68.5,57.7,72.4,66.7,0.9,99,94,74,30.06,29.77,16,2,16,0.37
2013-10-8,75.0,61.3,49.6,56.1,44.7,33.9,92,60,29,30.36,29.99,6,1,6,0.01
2013-10-9,62.6,57.4,50.5,52.2,45.1,37.9,78,65,53,30.45,30.33,11,3,11,0.00
2013-10-10,55.0,53.9,53.2,47.5,46.8,46.2,79,77,75,30.33,30.29,6,3,6,0.00
2013-10-21,78.8,61.8,41.5,53.9,38.9,20.9,92,52,19,30.19,30.01,9,1,9,0.00
2013-10-22,77.4,59.0,48.2,59.8,47.2,39.7,99,69,35,30.01,29.76,8,1,8,0.19
2013-10-23,56.5,48.1,41.4,42.5,37.2,32.1,93,68,44,29.84,29.64,6,1,6,0.00
2013-10-24,63.0,48.4,37.8,40.7,29.1,18.4,89,54,22,30.04,29.76,7,1,7,0.00
2013-10-25,62.4,46.9,37.6,38.6,29.6,23.3,78,55,30,30.26,30.03,5,1,5,0.00
2013-10-26,63.0,49.1,34.0,45.9,28.8,15.3,94,53,19,30.25,29.92,17,1,17,0.00
2013-10-27,68.4,52.5,41.9,37.6,30.3,20.8,70,48,22,30.14,29.88,6,1,6,0.01
2013-10-28,68.5,51.0,36.0,46.2,31.3,21.1,90,55,21,30.36,30.14,6,0,6,0.00
2013-10-29,60.8,47.9,39.7,35.6,30.1,19.8,81,54,26,30.47,30.35,7,1,7,0.00
2013-10-30,61.7,50.7,40.1,50.9,43.4,35.0,99,77,49,30.39,30.21,4,0,4,0.00
2013-10-31,66.9,57.3,44.6,61.5,55.4,43.8,99,94,82,30.26,29.82,8,1,8,0.04
2013-11-1,72.1,64.0,54.5,64.6,58.3,52.2,99,83,56,29.83,29.55,10,1,10,0.15
2013-11-2,76.5,58.9,49.8,59.9,47.5,38.3,99,71,38,29.80,29.62,6,0,6,0.00
2013-11-3,55.4,45.4,35.1,43.9,32.7,12.9,90,63,41,30.50,29.79,8,1,8,0.00
2013-11-4,49.5,39.6,30.4,26.2,14.4,0.8,54,39,18,30.71,30.50,8,2,8,0.00
2013-11-5,64.6,47.4,37.0,44.1,35.3,20.4,86,64,37,30.71,30.52,5,1,5,0.00
2013-11-6,68.7,53.6,40.5,60.2,46.8,40.0,99,81,42,30.54,30.09,8,1,8,0.00
2013-11-7,65.5,54.3,39.2,60.4,50.2,29.8,99,87,59,30.10,29.75,6,1,6,0.18
2013-11-8,59.4,44.7,37.0,37.4,25.5,5.0,82,52,20,30.24,29.94,9,1,9,0.00
2013-11-9,50.2,37.4,33.6,34.4,25.7,23.7,73,63,55,30.32,30.23,3,1,3,0.00
2013-11-10,70.5,48.9,47.3,39.4,31.5,20.0,71,53,18,30.07,29.85,8,2,8,0.00
2013-11-11,60.8,49.6,40.1,30.9,25.3,16.6,54,41,22,30.23,29.99,10,2,10,0.00
2013-11-12,51.3,38.3,29.1,36.1,23.3,10.9,93,58,35,30.32,29.96,5,1,5,0.09
2013-11-13,47.1,34.1,25.7,16.5,8.2,-5.9,59,39,17,30.41,30.30,12,2,12,0.00
2013-11-14,34.3,33.4,32.7,17.6,16.9,16.3,53,51,49,30.31,30.23,8,3,8,0.00
2013-11-17,57.6,56.8,56.3,57.3,56.5,56.0,99,99,99,30.00,29.81,4,1,4,0.05
2013-11-18,70.3,60.5,50.5,59.8,36.3,-3.3,99,52,18,29.82,29.61,14,4,14,0.35
2013-11-19,51.6,44.2,34.0,28.4,22.0,18.3,55,43,33,30.38,29.79,17,6,17,0.00
2013-11-20,49.5,36.7,30.2,19.9,10.7,-1.0,60,39,17,30.65,30.38,11,3,11,0.00
2013-11-21,51.6,42.3,29.8,42.4,28.4,10.4,82,60,39,30.66,30.42,9,2,9,0.00
2013-11-22,58.3,52.9,47.3,52.2,47.9,41.9,99,84,74,30.42,29.90,7,2,10,0.11
2013-11-23,53.8,42.7,29.7,50.1,20.9,-5.9,90,47,21,30.05,29.90,19,6,19,0.00
2013-11-24,32.2,26.1,22.3,-1.0,-7.9,-15.4,34,24,17,30.40,30.01,28,9,28,0.00
2013-11-25,38.7,29.9,21.2,9.4,3.3,-6.5,50,35,18,30.52,30.36,14,4,14,0.00
2013-11-26,47.5,38.1,34.0,47.2,23.3,7.3,99,61,32,30.38,29.83,14,4,14,0.48
2013-11-27,61.0,47.7,34.2,60.4,44.9,16.3,99,91,49,29.83,29.34,22,7,22,1.96
2013-11-28,38.1,31.7,25.7,16.3,5.6,-6.5,51,36,18,30.52,29.75,25,6,25,0.00
2013-11-29,44.6,33.8,27.1,18.5,13.2,8.3,59,44,27,30.79,30.51,9,3,9,0.00
2013-11-30,39.4,31.7,22.6,30.5,15.0,5.5,75,52,29,30.82,30.42,8,3,8,0.00
2013-12-1,54.7,42.6,35.6,37.0,32.0,27.1,84,68,48,30.42,30.03,5,1,5,0.00
2013-12-2,47.5,40.5,35.6,41.3,37.3,30.0,99,88,76,30.03,29.91,6,2,6,0.00
2013-12-3,57.7,41.9,31.3,39.9,34.7,31.0,99,79,41,30.03,29.88,7,1,7,0.00
2013-12-4,54.0,42.9,34.2,44.2,36.7,30.2,94,80,49,30.18,30.03,7,2,7,0.00
2013-12-5,54.3,50.6,46.2,53.5,49.9,44.4,99,98,92,30.17,29.96,9,2,9,0.04
2013-12-6,55.2,46.5,35.8,54.4,45.6,33.7,99,97,92,30.18,26.88,12,3,12,0.91
2013-12-7,44.1,36.7,31.1,34.7,25.9,12.9,97,68,45,30.55,30.11,14,3,14,0.11
2013-12-8,32.9,30.3,27.3,30.6,17.0,9.9,93,59,46,30.64,30.41,11,3,11,0.00
2013-12-9,38.5,34.5,28.9,38.2,33.8,28.4,99,97,89,30.43,29.97,17,3,17,0.30
2013-12-10,36.0,33.1,28.6,34.2,28.5,13.3,97,83,53,30.15,29.87,14,3,14,0.01
2013-12-11,38.3,30.7,25.3,14.2,10.6,5.8,53,44,30,30.36,30.15,17,5,17,0.12
2013-12-12,31.6,25.5,22.1,10.5,-2.6,-13.1,52,32,18,30.40,30.19,16,5,16,0.00
2013-12-13,37.4,28.9,21.9,15.0,3.5,-6.6,56,36,23,30.36,30.14,17,5,17,0.00
2013-12-14,31.1,23.5,18.5,30.9,16.5,10.1,99,76,52,30.55,29.83,18,5,18,0.01
2013-12-15,40.5,34.8,29.3,35.2,28.0,16.7,99,78,52,29.86,29.50,21,4,21,0.77
2013-12-16,34.5,28.2,19.9,19.7,3.1,-8.2,61,37,20,30.27,29.84,16,4,16,0.00
2013-12-17,28.8,24.8,18.5,25.9,16.1,2.3,90,71,40,30.27,29.97,11,3,11,0.00
2013-12-18,42.8,30.2,20.1,21.8,16.4,12.7,81,58,40,30.19,29.94,11,4,11,0.13
2013-12-19,48.6,37.5,27.3,28.2,21.2,13.5,67,54,33,30.22,30.05,12,2,12,0.00
2013-12-20,59.9,43.9,33.6,45.1,30.9,25.5,85,63,35,30.14,29.99,10,1,10,0.00
2013-12-21,65.1,54.1,48.0,50.5,47.0,44.7,92,78,53,30.03,29.91,11,3,11,0.00
2013-12-22,56.7,53.8,50.4,56.4,52.5,47.9,99,95,89,29.93,29.83,10,3,10,0.00
2013-12-29,41.7,41.0,40.1,41.5,39.9,37.5,99,96,86,30.03,29.81,14,5,14,0.00
2013-12-30,44.2,34.9,21.9,38.2,21.8,1.7,94,62,35,30.57,30.03,15,4,15,0.00
2013-12-31,33.4,26.2,19.0,18.6,6.3,-3.2,61,44,30,30.65,30.43,19,4,19,0.00
2014-1-1,35.2,28.5,22.5,14.8,6.5,-5.6,52,41,27,30.79,30.63,11,3,11,0.00
2014-1-2,31.1,24.8,15.6,20.5,16.1,9.9,83,70,49,30.64,29.70,16,7,16,0.00